• MPC Preparation (Info)

  • MPEC 1995-D01 : 1995 CR

    The following Minor Planet Electronic Circular may be linked-to from your own Web pages, but must not otherwise be redistributed electronically.

    A form allowing access to any MPEC is at the bottom of this page.


    Read MPEC 1995-C20 Read MPEC 1995-D02


    M.P.E.C. 1995-D01                                Issued 1995 Feb. 18, 13:41 UT
    
         The Minor Planet Electronic Circulars contain information on unusual
             minor planets and routine data on comets.  They are published
       on behalf of Commission 20 of the International Astronomical Union by the
              Minor Planet Center, Smithsonian Astrophysical Observatory,
                              Cambridge, MA 02138, U.S.A.
    
              MARSDEN@CFA or WILLIAMS@CFA (.HARVARD.EDU, .SPAN or .BITNET)
    
                                        1995 CR
    
                               Revision to MPEC 1995-C19
    
    Observations:
         J95C00R FC1995 02 09.56474 11 45 41.68 +08 20 28.1                      413
         J95C00R FC1995 02 09.56859 11 45 41.05 +08 20 36.3                      413
         J95C00R IC1995 02 09.77823 11 45 04.28 +08 28 16.6                      413
         J95C00R  C1995 02 10.82465 11 41 54.20 +09 09 50.4          19.7 V      360
         J95C00R  C1995 02 10.82951 11 41 53.19 +09 10 02.6                      360
         J95C00R  C1995 02 10.83403 11 41 52.17 +09 10 14.5                      360
         J95C00R  C1995 02 18.20677 10 36 27.68 +21 41 50.7          17.2 R      817
         J95C00R  C1995 02 18.21631 10 36 14.87 +21 43 57.4          17.2 R      817
    
    Observer details:
    360 Kuma Kogen.  Observer A. Nakamura.  0.60-m f/6.0 Ritchey-Chretien.
    413 Siding Spring Observatory.  Observers R. H. McNaught, D. J. Asher.
        1.0-m reflector.
    817 Sudbury.  Observer D. di Cicco.  0.28-m Schmidt-Cassegrain.
    
    Orbital elements:
    1995 CR
    Epoch 1995 Jan. 23.0 TT = JDT 2449740.5                 Marsden
    M 276.19087              (2000.0)            P               Q
    n   1.14590026     Peri.  322.03027     +0.57575272     +0.81737277
    a   0.9044228      Node   343.09163     -0.73207406     +0.50431611
    e   0.8671112      Incl.    3.99487     -0.36411039     +0.27850854
    P   0.86           H    21.5          G   0.15
    From 25 observations 1995 Feb. 3-18.
    
    Ephemeris:
    1995 CR                  a,e,i = 0.90, 0.87, 4                   q = 0.1202
    Date    TT    R. A. (2000) Decl.     Delta      r     Elong.  Phase     V
    1995 02 17.0  10 58.00   +17 56.7    0.102    1.087   165.0    13.6    17.5
    1995 02 17.5  10 50.14   +19 21.5    0.095    1.081   166.4    12.4    17.3
    1995 02 18.0  10 40.83   +20 58.3    0.088    1.074   167.4    11.6    17.1
    1995 02 18.5  10 29.67   +22 49.0    0.081    1.068   167.5    11.5    16.9
    1995 02 19.0  10 16.15   +24 55.2    0.075    1.061   166.4    12.6    16.7
    1995 02 19.5  09 59.56   +27 18.1    0.069    1.055   163.8    15.1    16.6
    1995 02 20.0  09 38.99   +29 57.3    0.063    1.048   159.7    19.1    16.6
    1995 02 20.5  09 13.30   +32 48.7    0.058    1.042   154.1    24.5    16.6
    1995 02 21.0  08 41.27   +35 42.0    0.054    1.035   147.1    31.2    16.6
    1995 02 21.5  08 02.02   +38 18.0    0.051    1.028   138.9    39.2    16.7
    1995 02 22.0  07 15.91   +40 09.2    0.049    1.021   129.8    48.1    16.8
    1995 02 22.5  06 25.48   +40 48.7    0.048    1.014   120.0    57.7    17.0
    1995 02 23.0  05 35.21   +40 05.6    0.049    1.007   110.2    67.2    17.3
    1995 02 23.5  04 49.51   +38 12.4    0.051    1.000   100.8    76.3    17.7
    1995 02 24.0  04 10.74   +35 36.2    0.054    0.993    92.3    84.6    18.1
    1995 02 24.5  03 39.14   +32 44.1    0.059    0.986    84.8    91.8    18.6
    1995 02 25.0  03 13.78   +29 54.6    0.064    0.979    78.3    98.0    19.0
    1995 02 25.5  02 53.44   +27 17.3    0.069    0.972    72.8   103.3    19.4
    1995 02 26.0  02 37.00   +24 56.1    0.075    0.964    68.0   107.9    19.8
    1995 02 26.5  02 23.55   +22 51.2    0.082    0.957    63.8   111.8    20.2
    1995 02 27.0  02 12.40   +21 01.5    0.088    0.950    60.3   115.1    20.6
    1995 02 27.5  02 03.05   +19 25.2    0.095    0.942    57.1   118.0    21.0
    1995 02 28.0  01 55.12   +18 00.6    0.102    0.935    54.3   120.6    21.3
    1995 02 28.5  01 48.30   +16 46.0    0.109    0.927    51.8   122.9    21.6
    1995 03 01.0  01 42.39   +15 39.9    0.117    0.919    49.6   124.9    21.9
    1995 03 01.5  01 37.22   +14 41.0    0.124    0.912    47.5   126.7    22.2
    1995 03 02.0  01 32.65   +13 48.3    0.132    0.904    45.6   128.4    22.4
    1995 03 02.5  01 28.58   +13 01.0    0.140    0.896    43.9   129.9    22.7
    1995 03 03.0  01 24.93   +12 18.1    0.147    0.888    42.3   131.3    22.9
    1995 03 03.5  01 21.63   +11 39.2    0.155    0.880    40.8   132.6    23.1
    1995 03 04.0  01 18.64   +11 03.7    0.163    0.872    39.4   133.8    23.4
    
                           (Last issue was M.P.E.C. 1995-C20)
    
    Brian G. Marsden                                              M.P.E.C. 1995-D01
    

    Read MPEC 1995-C20 Read MPEC 1995-D02


    MPEC number:

    Enter an MPEC number in one of the following forms:

    • 1997-B01 (the full form)
    • J97B01 (the packed version of the full form)
    • B01 (the abbreviated form)